1579561251,2020-01-21 00:00,74.25,1017.33,0.00,1046.25,1.90,0.00,240,0.1
1579561311,2020-01-21 00:01,74.19,1017.35,0.00,1046.27,1.98,0.00,240,0.1
1579561371,2020-01-21 00:02,74.23,1017.35,0.00,1046.27,2.01,0.00,240,0.1
1579561431,2020-01-21 00:03,73.63,1017.37,0.00,1046.29,2.11,0.00,240,0.1
1579561491,2020-01-21 00:04,73.68,1017.37,0.00,1046.29,1.99,0.00,240,0.1
1579561551,2020-01-21 00:05,74.14,1017.36,0.00,1046.27,1.99,0.00,240,0.1
1579561611,2020-01-21 00:06,73.71,1017.35,0.00,1046.26,1.97,0.00,240,0.1
1579561672,2020-01-21 00:07,74.22,1017.32,0.00,1046.23,2.03,0.00,240,0.1
1579561732,2020-01-21 00:08,74.08,1017.30,0.00,1046.22,2.05,0.00,240,0.1
1579561792,2020-01-21 00:09,73.71,1017.30,0.00,1046.21,2.13,0.00,240,0.1
1579561852,2020-01-21 00:10,73.71,1017.31,0.00,1046.23,2.13,0.00,240,0.1
1579561912,2020-01-21 00:11,73.28,1017.31,0.00,1046.22,2.22,0.00,240,0.1
1579561973,2020-01-21 00:12,73.70,1017.29,0.00,1046.20,2.27,0.00,240,0.1
1579562033,2020-01-21 00:13,73.00,1017.32,0.00,1046.23,2.25,0.00,240,0.1
1579562093,2020-01-21 00:14,73.29,1017.34,0.00,1046.26,2.21,0.00,240,0.1
1579562153,2020-01-21 00:15,73.18,1017.32,0.00,1046.23,2.19,0.00,240,0.1
1579562213,2020-01-21 00:16,73.59,1017.33,0.00,1046.24,2.26,0.00,240,0.1
1579562273,2020-01-21 00:17,73.91,1017.34,0.00,1046.26,2.22,0.00,240,0.1
1579562333,2020-01-21 00:18,73.35,1017.38,0.00,1046.29,2.12,0.00,240,0.1
1579562393,2020-01-21 00:19,73.99,1017.32,0.00,1046.23,2.13,0.00,240,0.1
1579562453,2020-01-21 00:20,73.42,1017.31,0.00,1046.22,2.03,0.00,240,0.1
1579562514,2020-01-21 00:21,73.35,1017.34,0.00,1046.26,2.06,0.00,240,0.1
1579562574,2020-01-21 00:22,73.66,1017.36,0.00,1046.27,2.03,0.00,240,0.1
1579562634,2020-01-21 00:23,73.37,1017.34,0.00,1046.25,1.96,0.00,240,0.1
1579562694,2020-01-21 00:24,73.09,1017.32,0.00,1046.24,1.87,0.00,240,0.1
1579562754,2020-01-21 00:25,73.28,1017.28,0.00,1046.19,1.91,0.00,240,0.1
1579562814,2020-01-21 00:26,73.70,1017.32,0.00,1046.24,1.98,0.00,240,0.1
1579562875,2020-01-21 00:27,73.01,1017.27,0.00,1046.18,1.74,0.00,240,0.1
1579562935,2020-01-21 00:28,73.64,1017.27,0.00,1046.19,1.65,0.00,240,0.1
1579562995,2020-01-21 00:29,73.41,1017.25,0.00,1046.17,1.76,0.00,240,0.1
1579563055,2020-01-21 00:30,73.29,1017.25,0.00,1046.17,1.87,0.00,240,0.1
1579563115,2020-01-21 00:31,72.95,1017.20,0.00,1046.12,1.65,0.00,240,0.1
1579563175,2020-01-21 00:32,73.24,1017.17,0.00,1046.08,1.74,0.00,240,0.1
1579563235,2020-01-21 00:33,73.22,1017.21,0.00,1046.13,1.70,0.00,240,0.1
1579563295,2020-01-21 00:34,73.44,1017.24,0.00,1046.15,1.82,0.00,240,0.1
1579563355,2020-01-21 00:35,72.88,1017.21,0.00,1046.12,1.87,0.00,240,0.1
1579563415,2020-01-21 00:36,72.72,1017.25,0.00,1046.17,1.87,0.00,240,0.1
1579563475,2020-01-21 00:37,73.19,1017.23,0.00,1046.15,1.89,0.00,240,0.1
1579563535,2020-01-21 00:38,73.21,1017.22,0.00,1046.14,1.90,0.00,240,0.1
1579563595,2020-01-21 00:39,73.40,1017.21,0.00,1046.12,1.88,0.00,240,0.1
1579563655,2020-01-21 00:40,73.29,1017.19,0.00,1046.11,1.84,0.00,240,0.1
1579563716,2020-01-21 00:41,73.51,1017.16,0.00,1046.08,1.87,0.00,240,0.1
1579563776,2020-01-21 00:42,73.22,1017.21,0.00,1046.12,1.82,0.00,240,0.1
1579563836,2020-01-21 00:43,73.28,1017.21,0.00,1046.13,1.80,0.00,240,0.1
1579563896,2020-01-21 00:44,73.33,1017.21,0.00,1046.13,1.76,0.00,240,0.1
1579563956,2020-01-21 00:45,73.12,1017.20,0.00,1046.11,1.87,0.00,240,0.1
1579564016,2020-01-21 00:46,73.40,1017.21,0.00,1046.12,1.92,0.00,240,0.1
1579564076,2020-01-21 00:47,73.01,1017.18,0.00,1046.09,1.98,0.00,240,0.1
1579564136,2020-01-21 00:48,72.85,1017.15,0.00,1046.07,1.98,0.00,240,0.1
1579564196,2020-01-21 00:49,71.87,1017.18,0.00,1046.09,1.83,0.00,240,0.1
1579564256,2020-01-21 00:50,72.77,1017.12,0.00,1046.04,1.86,0.00,240,0.1
1579564316,2020-01-21 00:51,72.42,1017.13,0.00,1046.04,1.74,0.00,240,0.1
1579564377,2020-01-21 00:52,72.74,1017.15,0.00,1046.06,1.86,0.00,240,0.1
1579564437,2020-01-21 00:53,72.67,1017.17,0.00,1046.09,1.99,0.00,240,0.1
1579564497,2020-01-21 00:54,72.92,1017.13,0.00,1046.05,1.92,0.00,240,0.1
1579564557,2020-01-21 00:55,72.55,1017.11,0.00,1046.02,1.96,0.00,240,0.1
1579564617,2020-01-21 00:56,72.38,1017.10,0.00,1046.02,1.88,0.00,240,0.1
1579564677,2020-01-21 00:57,72.72,1017.07,0.00,1045.99,1.75,0.00,240,0.1
1579564737,2020-01-21 00:58,72.83,1017.02,0.00,1045.94,1.89,0.00,240,0.1
1579564797,2020-01-21 00:59,72.25,1017.07,0.00,1045.98,1.89,0.00,240,0.1
1579564858,2020-01-21 01:00,72.53,1017.01,0.00,1045.93,1.83,0.00,240,0.1
1579564918,2020-01-21 01:01,72.45,1017.03,0.00,1045.94,1.92,0.00,240,0.1
1579564978,2020-01-21 01:02,72.68,1017.01,0.00,1045.93,1.93,0.00,240,0.1
1579565038,2020-01-21 01:03,73.04,1016.98,0.00,1045.90,1.84,0.00,240,0.1
1579565098,2020-01-21 01:04,73.12,1017.01,0.00,1045.93,1.97,0.00,240,0.1
1579565158,2020-01-21 01:05,72.71,1017.01,0.00,1045.92,1.94,0.00,240,0.1
1579565219,2020-01-21 01:06,72.76,1017.01,0.00,1045.93,1.90,0.00,240,0.1
1579565279,2020-01-21 01:07,72.71,1017.00,0.00,1045.92,1.97,0.00,240,0.1
1579565339,2020-01-21 01:08,72.77,1016.98,0.00,1045.90,1.81,0.00,240,0.1
1579565399,2020-01-21 01:09,72.62,1017.02,0.00,1045.94,1.92,0.00,240,0.1
1579565459,2020-01-21 01:10,72.89,1016.95,0.00,1045.87,1.60,0.00,240,0.1
1579565519,2020-01-21 01:11,73.01,1017.03,0.00,1045.95,1.79,0.00,240,0.1
1579565579,2020-01-21 01:12,72.85,1017.01,0.00,1045.93,1.83,0.00,240,0.1
1579565639,2020-01-21 01:13,72.66,1017.00,0.00,1045.92,1.81,0.00,240,0.1
1579565699,2020-01-21 01:14,72.72,1016.98,0.00,1045.89,1.76,0.00,240,0.1
1579565759,2020-01-21 01:15,72.54,1016.91,0.00,1045.83,1.85,0.00,240,0.1
1579565819,2020-01-21 01:16,72.66,1016.95,0.00,1045.87,1.76,0.00,240,0.1
1579565879,2020-01-21 01:17,72.12,1016.94,0.00,1045.86,1.86,0.00,240,0.1
1579565939,2020-01-21 01:18,72.68,1016.91,0.00,1045.82,1.90,0.00,240,0.1
1579566000,2020-01-21 01:20,72.81,1016.91,0.00,1045.82,1.83,0.00,240,0.1
1579566060,2020-01-21 01:21,73.06,1016.89,0.00,1045.81,1.65,0.00,240,0.1
1579566120,2020-01-21 01:22,72.79,1016.88,0.00,1045.80,1.61,0.00,240,0.1
1579566180,2020-01-21 01:23,72.86,1016.90,0.00,1045.82,1.58,0.00,240,0.1
1579566240,2020-01-21 01:24,72.79,1016.87,0.00,1045.78,1.60,0.00,240,0.1
1579566300,2020-01-21 01:25,73.03,1016.89,0.00,1045.80,1.59,0.00,240,0.1
1579566360,2020-01-21 01:26,73.02,1016.91,0.00,1045.83,1.54,0.00,240,0.1
1579566420,2020-01-21 01:27,73.03,1016.84,0.00,1045.75,1.56,0.00,240,0.1
1579566480,2020-01-21 01:28,73.00,1016.84,0.00,1045.76,1.63,0.00,240,0.1
1579566540,2020-01-21 01:29,72.92,1016.86,0.00,1045.77,1.64,0.00,240,0.1
1579566600,2020-01-21 01:30,72.78,1016.86,0.00,1045.78,1.75,0.00,240,0.1
1579566661,2020-01-21 01:31,72.43,1016.85,0.00,1045.77,1.74,0.00,240,0.1
1579566721,2020-01-21 01:32,72.69,1016.82,0.00,1045.74,1.76,0.00,240,0.1
1579566781,2020-01-21 01:33,72.69,1016.82,0.00,1045.74,1.62,0.00,240,0.1
1579566841,2020-01-21 01:34,73.05,1016.68,0.00,1045.60,1.54,0.00,240,0.1
1579566902,2020-01-21 01:35,73.06,1016.73,0.00,1045.64,1.57,0.00,240,0.1
1579566962,2020-01-21 01:36,73.45,1016.74,0.00,1045.66,1.56,0.00,240,0.1
1579567022,2020-01-21 01:37,73.03,1016.74,0.00,1045.66,1.71,0.00,240,0.1
1579567082,2020-01-21 01:38,73.05,1016.80,0.00,1045.72,1.72,0.00,240,0.1
1579567142,2020-01-21 01:39,72.86,1016.86,0.00,1045.78,1.76,0.00,240,0.1
1579567202,2020-01-21 01:40,72.54,1016.82,0.00,1045.73,1.76,0.00,240,0.1
1579567262,2020-01-21 01:41,72.83,1016.81,0.00,1045.72,1.64,0.00,240,0.1
1579567322,2020-01-21 01:42,73.16,1016.79,0.00,1045.71,1.69,0.00,240,0.1
1579567382,2020-01-21 01:43,73.34,1016.79,0.00,1045.71,1.60,0.00,240,0.1
1579567442,2020-01-21 01:44,74.12,1016.81,0.00,1045.72,1.75,0.00,240,0.1
1579567503,2020-01-21 01:45,72.80,1016.79,0.00,1045.71,1.78,0.00,240,0.1
1579567563,2020-01-21 01:46,73.19,1016.77,0.00,1045.69,1.67,0.00,240,0.1
1579567623,2020-01-21 01:47,73.30,1016.80,0.00,1045.72,1.50,0.00,240,0.1
1579567683,2020-01-21 01:48,73.63,1016.78,0.00,1045.70,1.61,0.00,240,0.1
1579567743,2020-01-21 01:49,73.43,1016.80,0.00,1045.71,1.67,0.00,240,0.1
1579567803,2020-01-21 01:50,73.26,1016.77,0.00,1045.69,1.63,0.00,240,0.1
1579567863,2020-01-21 01:51,73.47,1016.79,0.00,1045.71,1.66,0.00,240,0.1
1579567923,2020-01-21 01:52,73.34,1016.79,0.00,1045.71,1.70,0.00,240,0.1
1579567983,2020-01-21 01:53,73.15,1016.75,0.00,1045.67,1.67,0.00,240,0.1
1579568043,2020-01-21 01:54,73.06,1016.73,0.00,1045.64,1.53,0.00,240,0.1
1579568103,2020-01-21 01:55,73.55,1016.75,0.00,1045.66,1.54,0.00,240,0.1
1579568163,2020-01-21 01:56,73.50,1016.73,0.00,1045.64,1.62,0.00,240,0.1
1579568223,2020-01-21 01:57,73.12,1016.67,0.00,1045.58,1.62,0.00,240,0.1
1579568284,2020-01-21 01:58,73.71,1016.66,0.00,1045.57,1.50,0.00,240,0.1
1579568344,2020-01-21 01:59,73.86,1016.75,0.00,1045.67,1.37,0.00,240,0.1
1579568404,2020-01-21 02:00,74.00,1016.70,0.00,1045.62,1.42,0.00,240,0.1
1579568464,2020-01-21 02:01,73.68,1016.73,0.00,1045.64,1.39,0.00,240,0.1
1579568524,2020-01-21 02:02,74.12,1016.73,0.00,1045.65,1.42,0.00,240,0.1
1579568584,2020-01-21 02:03,73.33,1016.67,0.00,1045.59,1.59,0.00,240,0.1
1579568644,2020-01-21 02:04,73.55,1016.63,0.00,1045.54,1.40,0.00,240,0.1
1579568704,2020-01-21 02:05,73.71,1016.66,0.00,1045.58,1.27,0.00,240,0.1
1579568764,2020-01-21 02:06,73.70,1016.62,0.00,1045.54,1.36,0.00,240,0.1
1579568824,2020-01-21 02:07,73.50,1016.62,0.00,1045.54,1.51,0.00,240,0.1
1579568884,2020-01-21 02:08,73.16,1016.66,0.00,1045.57,1.61,0.00,240,0.1
1579568944,2020-01-21 02:09,72.62,1016.57,0.00,1045.49,1.56,0.00,240,0.1
1579569005,2020-01-21 02:10,72.87,1016.58,0.00,1045.49,1.63,0.00,240,0.1
1579569065,2020-01-21 02:11,72.83,1016.61,0.00,1045.53,1.58,0.00,240,0.1
1579569125,2020-01-21 02:12,72.86,1016.58,0.00,1045.50,1.62,0.00,240,0.1
1579569185,2020-01-21 02:13,73.30,1016.59,0.00,1045.50,1.65,0.00,240,0.1
1579569245,2020-01-21 02:14,73.05,1016.55,0.00,1045.46,1.62,0.00,240,0.1
1579569305,2020-01-21 02:15,73.36,1016.54,0.00,1045.45,1.60,0.00,240,0.1
1579569365,2020-01-21 02:16,73.26,1016.57,0.00,1045.49,1.62,0.00,240,0.1
1579569425,2020-01-21 02:17,72.83,1016.46,0.00,1045.37,1.73,0.00,240,0.1
1579569485,2020-01-21 02:18,72.53,1016.47,0.00,1045.38,1.68,0.00,240,0.1
1579569545,2020-01-21 02:19,72.81,1016.44,0.00,1045.35,1.56,0.00,240,0.1
1579569606,2020-01-21 02:20,73.31,1016.32,0.00,1045.24,1.41,0.00,240,0.1
1579569666,2020-01-21 02:21,73.39,1016.33,0.00,1045.25,1.33,0.00,240,0.1
1579569726,2020-01-21 02:22,73.79,1016.36,0.00,1045.28,1.28,0.00,240,0.1
1579569786,2020-01-21 02:23,73.57,1016.32,0.00,1045.24,1.41,0.00,240,0.1
1579569846,2020-01-21 02:24,73.31,1016.33,0.00,1045.25,1.18,0.00,240,0.1
1579569906,2020-01-21 02:25,73.78,1016.34,0.00,1045.26,1.33,0.00,240,0.1
1579569966,2020-01-21 02:26,74.01,1016.26,0.00,1045.17,1.24,0.00,240,0.1
1579570026,2020-01-21 02:27,73.80,1016.24,0.00,1045.15,1.41,0.00,240,0.1
1579570086,2020-01-21 02:28,74.25,1016.22,0.00,1045.14,1.36,0.00,240,0.1
1579570146,2020-01-21 02:29,73.48,1016.19,0.00,1045.10,1.47,0.00,240,0.1
1579570206,2020-01-21 02:30,73.57,1016.20,0.00,1045.12,1.44,0.00,240,0.1
1579570266,2020-01-21 02:31,73.34,1016.15,0.00,1045.07,1.48,0.00,240,0.1
1579570326,2020-01-21 02:32,73.05,1016.17,0.00,1045.09,1.58,0.00,240,0.1
1579570386,2020-01-21 02:33,73.47,1016.12,0.00,1045.03,1.49,0.00,240,0.1
1579570446,2020-01-21 02:34,73.20,1016.12,0.00,1045.03,1.37,0.00,240,0.1
1579570506,2020-01-21 02:35,73.29,1016.12,0.00,1045.04,1.48,0.00,240,0.1
1579570566,2020-01-21 02:36,73.21,1016.12,0.00,1045.03,1.34,0.00,240,0.1
1579570627,2020-01-21 02:37,73.74,1016.02,0.00,1044.93,1.36,0.00,240,0.1
1579570687,2020-01-21 02:38,73.44,1016.08,0.00,1044.99,1.51,0.00,240,0.1
1579570747,2020-01-21 02:39,73.38,1016.02,0.00,1044.93,1.52,0.00,240,0.1
1579570807,2020-01-21 02:40,73.66,1016.00,0.00,1044.91,1.34,0.00,240,0.1
1579570867,2020-01-21 02:41,74.06,1015.96,0.00,1044.88,1.36,0.00,240,0.1
1579570927,2020-01-21 02:42,73.73,1015.97,0.00,1044.89,1.54,0.00,240,0.1
1579570987,2020-01-21 02:43,73.81,1015.97,0.00,1044.89,1.27,0.00,240,0.1
1579571047,2020-01-21 02:44,73.99,1015.91,0.00,1044.83,1.42,0.00,240,0.1
1579571107,2020-01-21 02:45,73.71,1015.92,0.00,1044.84,1.52,0.00,240,0.1
1579571167,2020-01-21 02:46,73.57,1015.93,0.00,1044.85,1.58,0.00,240,0.1
1579571227,2020-01-21 02:47,73.83,1015.91,0.00,1044.83,1.28,0.00,240,0.1
1579571287,2020-01-21 02:48,74.48,1015.86,0.00,1044.78,1.14,0.00,240,0.1
1579571348,2020-01-21 02:49,74.74,1015.84,0.00,1044.76,1.18,0.00,240,0.1
1579571408,2020-01-21 02:50,74.53,1015.77,0.00,1044.69,1.28,0.00,240,0.1
1579571468,2020-01-21 02:51,74.01,1015.80,0.00,1044.71,1.27,0.00,240,0.1
1579571528,2020-01-21 02:52,74.33,1015.76,0.00,1044.68,1.31,0.00,240,0.1
1579571588,2020-01-21 02:53,74.57,1015.76,0.00,1044.67,1.27,0.00,240,0.1
1579571648,2020-01-21 02:54,75.07,1015.77,0.00,1044.69,1.17,0.00,240,0.1
1579571708,2020-01-21 02:55,74.80,1015.73,0.00,1044.64,1.21,0.00,240,0.1
1579571768,2020-01-21 02:56,74.30,1015.72,0.00,1044.64,1.36,0.00,240,0.1
1579571829,2020-01-21 02:57,74.77,1015.69,0.00,1044.61,1.30,0.00,240,0.1
1579571889,2020-01-21 02:58,74.40,1015.71,0.00,1044.62,1.31,0.00,240,0.1
1579571949,2020-01-21 02:59,74.34,1015.66,0.00,1044.58,1.30,0.00,240,0.1
1579572009,2020-01-21 03:00,74.93,1015.67,0.00,1044.59,1.24,0.00,240,0.1
1579572069,2020-01-21 03:01,74.44,1015.68,0.00,1044.59,1.30,0.00,240,0.1
1579572129,2020-01-21 03:02,74.68,1015.69,0.00,1044.60,1.20,0.00,240,0.1
1579572189,2020-01-21 03:03,74.72,1015.67,0.00,1044.59,1.29,0.00,240,0.1
1579572249,2020-01-21 03:04,74.75,1015.67,0.00,1044.59,1.35,0.00,240,0.1
1579572310,2020-01-21 03:05,74.60,1015.62,0.00,1044.54,1.40,0.00,240,0.1
1579572370,2020-01-21 03:06,74.30,1015.60,0.00,1044.52,1.48,0.00,240,0.1
1579572430,2020-01-21 03:07,74.17,1015.67,0.00,1044.58,1.55,0.00,240,0.1
1579572490,2020-01-21 03:08,74.25,1015.57,0.00,1044.49,1.56,0.00,240,0.1
1579572550,2020-01-21 03:09,74.25,1015.63,0.00,1044.54,1.44,0.00,240,0.1
1579572610,2020-01-21 03:10,74.31,1015.57,0.00,1044.48,1.39,0.00,240,0.1
1579572671,2020-01-21 03:11,74.44,1015.56,0.00,1044.48,1.50,0.00,240,0.1
1579572731,2020-01-21 03:12,74.78,1015.51,0.00,1044.42,1.24,0.00,240,0.1
1579572791,2020-01-21 03:13,74.53,1015.48,0.00,1044.40,1.32,0.00,240,0.1
1579572851,2020-01-21 03:14,74.27,1015.45,0.00,1044.37,1.36,0.00,240,0.1
1579572911,2020-01-21 03:15,73.84,1015.43,0.00,1044.34,1.48,0.00,240,0.1
1579572971,2020-01-21 03:16,74.12,1015.50,0.00,1044.42,1.38,0.00,240,0.1
1579573031,2020-01-21 03:17,74.15,1015.48,0.00,1044.39,1.33,0.00,240,0.1
1579573091,2020-01-21 03:18,74.58,1015.46,0.00,1044.37,1.24,0.00,240,0.1
1579573151,2020-01-21 03:19,74.33,1015.40,0.00,1044.31,1.24,0.00,240,0.1
1579573211,2020-01-21 03:20,74.19,1015.39,0.00,1044.31,1.32,0.00,240,0.1
1579573272,2020-01-21 03:21,74.06,1015.44,0.00,1044.36,1.39,0.00,240,0.1
1579573332,2020-01-21 03:22,74.18,1015.43,0.00,1044.34,1.39,0.00,240,0.1
1579573392,2020-01-21 03:23,74.15,1015.37,0.00,1044.29,1.25,0.00,240,0.1
1579573452,2020-01-21 03:24,74.25,1015.33,0.00,1044.24,1.32,0.00,240,0.1
1579573512,2020-01-21 03:25,74.21,1015.32,0.00,1044.24,1.36,0.00,240,0.1
1579573572,2020-01-21 03:26,74.75,1015.31,0.00,1044.23,1.28,0.00,240,0.1
1579573632,2020-01-21 03:27,74.63,1015.28,0.00,1044.20,1.22,0.00,240,0.1
1579573693,2020-01-21 03:28,74.41,1015.29,0.00,1044.21,1.25,0.00,240,0.1
1579573753,2020-01-21 03:29,74.94,1015.28,0.00,1044.19,1.27,0.00,240,0.1
1579573813,2020-01-21 03:30,74.55,1015.28,0.00,1044.19,1.29,0.00,240,0.1
1579573873,2020-01-21 03:31,74.31,1015.28,0.00,1044.19,1.23,0.00,240,0.1
1579573933,2020-01-21 03:32,74.66,1015.27,0.00,1044.18,1.18,0.00,240,0.1
1579573993,2020-01-21 03:33,75.01,1015.26,0.00,1044.18,1.07,0.00,240,0.1
1579574053,2020-01-21 03:34,74.65,1015.27,0.00,1044.18,1.14,0.00,240,0.1
1579574113,2020-01-21 03:35,75.07,1015.27,0.00,1044.19,1.16,0.00,240,0.1
1579574173,2020-01-21 03:36,74.74,1015.33,0.00,1044.25,1.11,0.00,240,0.1
1579574233,2020-01-21 03:37,74.90,1015.32,0.00,1044.24,1.11,0.00,240,0.1
1579574294,2020-01-21 03:38,75.07,1015.25,0.00,1044.17,1.03,0.00,240,0.1
1579574354,2020-01-21 03:39,74.61,1015.34,0.00,1044.25,1.07,0.00,240,0.1
1579574414,2020-01-21 03:40,74.34,1015.35,0.00,1044.26,0.96,0.00,240,0.1
1579574474,2020-01-21 03:41,75.04,1015.28,0.00,1044.20,1.04,0.00,240,0.1
1579574534,2020-01-21 03:42,74.56,1015.28,0.00,1044.19,1.14,0.00,240,0.1
1579574594,2020-01-21 03:43,74.74,1015.27,0.00,1044.19,1.11,0.00,240,0.1
1579574654,2020-01-21 03:44,74.80,1015.30,0.00,1044.22,1.17,0.00,240,0.1
1579574714,2020-01-21 03:45,74.74,1015.27,0.00,1044.18,1.22,0.00,240,0.1
1579574774,2020-01-21 03:46,74.52,1015.27,0.00,1044.19,1.22,0.00,240,0.1
1579574834,2020-01-21 03:47,74.64,1015.25,0.00,1044.17,1.10,0.00,240,0.1
1579574895,2020-01-21 03:48,75.09,1015.34,0.00,1044.26,1.07,0.00,240,0.1
1579574955,2020-01-21 03:49,74.69,1015.29,0.00,1044.21,1.07,0.00,240,0.1
1579575015,2020-01-21 03:50,74.80,1015.27,0.00,1044.19,1.15,0.00,240,0.1
1579575075,2020-01-21 03:51,74.83,1015.28,0.00,1044.20,1.08,0.00,240,0.1
1579575135,2020-01-21 03:52,74.87,1015.28,0.00,1044.20,1.09,0.00,240,0.1
1579575195,2020-01-21 03:53,75.06,1015.31,0.00,1044.23,1.02,0.00,240,0.1
1579575255,2020-01-21 03:54,75.01,1015.30,0.00,1044.22,1.20,0.00,240,0.1
1579575316,2020-01-21 03:55,74.84,1015.24,0.00,1044.16,1.19,0.00,240,0.1
1579575376,2020-01-21 03:56,74.46,1015.24,0.00,1044.15,1.06,0.00,240,0.1
1579575436,2020-01-21 03:57,74.93,1015.17,0.00,1044.09,1.13,0.00,240,0.1
1579575496,2020-01-21 03:58,74.81,1015.22,0.00,1044.13,1.11,0.00,240,0.1
1579575556,2020-01-21 03:59,74.62,1015.13,0.00,1044.04,1.09,0.00,240,0.1
1579575616,2020-01-21 04:00,74.35,1015.18,0.00,1044.10,1.13,0.00,240,0.1
1579575676,2020-01-21 04:01,75.33,1015.17,0.00,1044.09,1.14,0.00,240,0.1
1579575737,2020-01-21 04:02,74.72,1015.19,0.00,1044.11,1.19,0.00,240,0.1
1579575797,2020-01-21 04:03,74.83,1015.09,0.00,1044.01,1.19,0.00,240,0.1
1579575857,2020-01-21 04:04,74.57,1015.07,0.00,1043.99,1.25,0.00,240,0.1
1579575918,2020-01-21 04:05,74.75,1015.04,0.00,1043.96,1.09,0.00,240,0.1
1579575978,2020-01-21 04:06,74.88,1014.93,0.00,1043.85,1.01,0.00,240,0.1
1579576038,2020-01-21 04:07,74.53,1014.99,0.00,1043.90,1.01,0.00,240,0.1
1579576098,2020-01-21 04:08,75.30,1014.94,0.00,1043.86,1.00,0.00,240,0.1
1579576158,2020-01-21 04:09,75.07,1014.95,0.00,1043.87,1.13,0.00,240,0.1
1579576218,2020-01-21 04:10,75.22,1014.88,0.00,1043.80,1.14,0.00,240,0.1
1579576278,2020-01-21 04:11,75.27,1014.87,0.00,1043.79,1.09,0.00,240,0.1
1579576339,2020-01-21 04:12,75.15,1014.84,0.00,1043.76,1.00,0.00,240,0.1
1579576399,2020-01-21 04:13,75.24,1014.83,0.00,1043.74,0.93,0.00,240,0.1
1579576459,2020-01-21 04:14,75.30,1014.79,0.00,1043.71,1.03,0.00,240,0.1
1579576519,2020-01-21 04:15,74.90,1014.83,0.00,1043.74,0.96,0.00,240,0.1
1579576579,2020-01-21 04:16,75.19,1014.79,0.00,1043.71,1.08,0.00,240,0.1
1579576639,2020-01-21 04:17,75.32,1014.81,0.00,1043.73,1.01,0.00,240,0.1
1579576699,2020-01-21 04:18,75.26,1014.86,0.00,1043.77,0.97,0.00,240,0.1
1579576760,2020-01-21 04:19,75.55,1014.76,0.00,1043.68,0.90,0.00,240,0.1
1579576820,2020-01-21 04:20,75.33,1014.80,0.00,1043.72,1.00,0.00,240,0.1
1579576880,2020-01-21 04:21,75.23,1014.80,0.00,1043.71,1.01,0.00,240,0.1
1579576940,2020-01-21 04:22,75.14,1014.86,0.00,1043.77,1.00,0.00,240,0.1
1579577000,2020-01-21 04:23,75.40,1014.80,0.00,1043.71,1.00,0.00,240,0.1
1579577060,2020-01-21 04:24,75.42,1014.80,0.00,1043.71,0.98,0.00,240,0.1
1579577120,2020-01-21 04:25,75.38,1014.79,0.00,1043.70,0.95,0.00,240,0.1
1579577180,2020-01-21 04:26,75.63,1014.72,0.00,1043.64,0.94,0.00,240,0.1
1579577240,2020-01-21 04:27,75.86,1014.75,0.00,1043.66,0.91,0.00,240,0.1
1579577301,2020-01-21 04:28,75.68,1014.74,0.00,1043.65,1.02,0.00,240,0.1
1579577361,2020-01-21 04:29,75.47,1014.62,0.00,1043.54,0.98,0.00,240,0.1
1579577421,2020-01-21 04:30,75.44,1014.46,0.00,1043.37,0.90,0.00,240,0.1
1579577481,2020-01-21 04:31,75.71,1014.58,0.00,1043.49,0.96,0.00,240,0.1
1579577541,2020-01-21 04:32,75.63,1014.61,0.00,1043.52,0.97,0.00,240,0.1
1579577601,2020-01-21 04:33,75.81,1014.55,0.00,1043.46,0.96,0.00,240,0.1
1579577661,2020-01-21 04:34,75.34,1014.61,0.00,1043.53,0.99,0.00,240,0.1
1579577722,2020-01-21 04:35,75.65,1014.59,0.00,1043.51,0.91,0.00,240,0.1
1579577782,2020-01-21 04:36,75.69,1014.60,0.00,1043.52,0.94,0.00,240,0.1
1579577842,2020-01-21 04:37,75.28,1014.55,0.00,1043.47,1.02,0.00,240,0.1
1579577902,2020-01-21 04:38,75.71,1014.55,0.00,1043.46,0.93,0.00,240,0.1
1579577962,2020-01-21 04:39,75.77,1014.57,0.00,1043.48,0.99,0.00,240,0.1
1579578022,2020-01-21 04:40,75.77,1014.59,0.00,1043.50,0.87,0.00,240,0.1
1579578082,2020-01-21 04:41,75.75,1014.56,0.00,1043.47,1.01,0.00,240,0.1
1579578142,2020-01-21 04:42,75.78,1014.55,0.00,1043.47,0.95,0.00,240,0.1
1579578202,2020-01-21 04:43,75.96,1014.56,0.00,1043.47,0.91,0.00,240,0.1
1579578263,2020-01-21 04:44,76.33,1014.57,0.00,1043.48,0.86,0.00,240,0.1
1579578323,2020-01-21 04:45,76.15,1014.60,0.00,1043.52,0.88,0.00,240,0.1
1579578383,2020-01-21 04:46,75.68,1014.59,0.00,1043.51,0.93,0.00,240,0.1
1579578443,2020-01-21 04:47,76.04,1014.59,0.00,1043.50,0.97,0.00,240,0.1
1579578503,2020-01-21 04:48,75.41,1014.62,0.00,1043.53,1.07,0.00,240,0.1
1579578563,2020-01-21 04:49,75.82,1014.60,0.00,1043.51,1.00,0.00,240,0.1
1579578623,2020-01-21 04:50,75.94,1014.57,0.00,1043.48,1.06,0.00,240,0.1
1579578683,2020-01-21 04:51,75.95,1014.59,0.00,1043.50,1.02,0.00,240,0.1
1579578743,2020-01-21 04:52,75.65,1014.61,0.00,1043.52,1.02,0.00,240,0.1
1579578804,2020-01-21 04:53,75.54,1014.56,0.00,1043.47,1.05,0.00,240,0.1
1579578864,2020-01-21 04:54,75.75,1014.60,0.00,1043.51,0.96,0.00,240,0.1
1579578924,2020-01-21 04:55,75.50,1014.57,0.00,1043.48,1.01,0.00,240,0.1
1579578984,2020-01-21 04:56,75.78,1014.57,0.00,1043.49,1.03,0.00,240,0.1
1579579044,2020-01-21 04:57,75.25,1014.56,0.00,1043.47,1.05,0.00,240,0.1
1579579104,2020-01-21 04:58,75.62,1014.55,0.00,1043.47,1.11,0.00,240,0.1
1579579164,2020-01-21 04:59,75.31,1014.48,0.00,1043.40,1.19,0.00,240,0.1
1579579224,2020-01-21 05:00,75.26,1014.55,0.00,1043.46,1.14,0.00,240,0.1
1579579284,2020-01-21 05:01,75.36,1014.52,0.00,1043.44,1.14,0.00,240,0.1
1579579345,2020-01-21 05:02,75.51,1014.49,0.00,1043.40,1.22,0.00,240,0.1
1579579405,2020-01-21 05:03,75.02,1014.50,0.00,1043.41,1.17,0.00,240,0.1
1579579465,2020-01-21 05:04,75.87,1014.49,0.00,1043.41,0.94,0.00,240,0.1
1579579525,2020-01-21 05:05,76.10,1014.50,0.00,1043.42,1.04,0.00,240,0.1
1579579585,2020-01-21 05:06,75.79,1014.49,0.00,1043.40,0.95,0.00,240,0.1
1579579645,2020-01-21 05:07,75.78,1014.52,0.00,1043.44,1.03,0.00,240,0.1
1579579706,2020-01-21 05:08,75.29,1014.52,0.00,1043.44,1.10,0.00,240,0.1
1579579766,2020-01-21 05:09,75.26,1014.47,0.00,1043.38,0.97,0.00,240,0.1
1579579826,2020-01-21 05:10,75.40,1014.44,0.00,1043.36,1.04,0.00,240,0.1
1579579886,2020-01-21 05:11,75.61,1014.44,0.00,1043.36,1.02,0.00,240,0.1
1579579946,2020-01-21 05:12,75.12,1014.55,0.00,1043.47,1.07,0.00,240,0.1
1579580006,2020-01-21 05:13,74.93,1014.54,0.00,1043.45,1.08,0.00,240,0.1
1579580066,2020-01-21 05:14,75.11,1014.51,0.00,1043.43,1.08,0.00,240,0.1
1579580126,2020-01-21 05:15,75.06,1014.48,0.00,1043.40,0.99,0.00,240,0.1
1579580186,2020-01-21 05:16,75.35,1014.51,0.00,1043.42,0.96,0.00,240,0.1
1579580246,2020-01-21 05:17,75.40,1014.48,0.00,1043.40,1.04,0.00,240,0.1
1579580306,2020-01-21 05:18,75.68,1014.48,0.00,1043.40,0.90,0.00,240,0.1
1579580366,2020-01-21 05:19,75.75,1014.51,0.00,1043.42,1.02,0.00,240,0.1
1579580426,2020-01-21 05:20,75.39,1014.49,0.00,1043.41,1.07,0.00,240,0.1
1579580486,2020-01-21 05:21,75.05,1014.51,0.00,1043.43,1.03,0.00,240,0.1
1579580547,2020-01-21 05:22,75.62,1014.52,0.00,1043.43,0.84,0.00,240,0.1
1579580607,2020-01-21 05:23,75.77,1014.46,0.00,1043.37,0.90,0.00,240,0.1
1579580667,2020-01-21 05:24,75.88,1014.47,0.00,1043.38,0.83,0.00,240,0.1
1579580727,2020-01-21 05:25,75.58,1014.47,0.00,1043.39,0.88,0.00,240,0.1
1579580787,2020-01-21 05:26,75.70,1014.51,0.00,1043.43,0.98,0.00,240,0.1
1579580847,2020-01-21 05:27,75.83,1014.50,0.00,1043.42,0.89,0.00,240,0.1
1579580907,2020-01-21 05:28,75.42,1014.46,0.00,1043.38,1.00,0.00,240,0.1